This is the latest recevied weather packets stored in our database for station/object KC3ULW-13. If no packets are shown the sender has not sent any weather packets the latest 10 day(s).
| Time | Temp. | Humidity | Pressure | Rain* | Wind** | Luminosity | Snow |
|---|---|---|---|---|---|---|---|
| 1777164243 | 12.22° C | 82% | 1016 hPa | 0 mm | - | 0 W/m² | - |
| 1777163938 | 12.22° C | 82% | 1015.7 hPa | 0 mm | - | 0 W/m² | - |
| 1777163637 | 12.22° C | 81% | 1015.6 hPa | 0 mm | - | 0 W/m² | - |
| 1777163333 | 12.22° C | 82% | 1015.7 hPa | 0 mm | - | 0 W/m² | - |
| 1777163029 | 12.22° C | 82% | 1015.5 hPa | 0 mm | - | 0 W/m² | - |
| 1777162725 | 12.22° C | 82% | 1015.5 hPa | 0 mm | - | 0 W/m² | - |
| 1777162419 | 12.78° C | 82% | 1015.1 hPa | 0 mm | - | 0 W/m² | - |
| 1777162119 | 12.78° C | 82% | 1014.9 hPa | 0 mm | - | 0 W/m² | - |
| 1777161815 | 12.78° C | 82% | 1014.8 hPa | 0 mm | - | 0 W/m² | - |
| 1777161512 | 12.78° C | 81% | 1014.9 hPa | 0 mm | - | 2 W/m² | - |
| 1777161208 | 12.78° C | 81% | 1014.9 hPa | 0 mm | - | 3 W/m² | - |
| 1777160904 | 12.78° C | 81% | 1014.6 hPa | 0 mm | - | 6 W/m² | - |
| 1777160599 | 12.78° C | 81% | 1014.7 hPa | 0 mm | - | 5 W/m² | - |
| 1777160295 | 12.78° C | 81% | 1014.7 hPa | 0 mm | - | 8 W/m² | - |
| 1777159992 | 12.78° C | 81% | 1014.5 hPa | 0 mm | - | 12 W/m² | - |
| 1777159687 | 13.33° C | 81% | 1014.6 hPa | 0 mm | - | 13 W/m² | - |
| 1777159384 | 13.33° C | 81% | 1014.2 hPa | 0 mm | - | 20 W/m² | - |
| 1777159080 | 12.78° C | 81% | 1014.5 hPa | 0 mm | - | 29 W/m² | - |
| 1777158777 | 12.78° C | 81% | 1014.1 hPa | 0 mm | - | 26 W/m² | - |
| 1777158476 | 13.33° C | 81% | 1014.1 hPa | 0 mm | - | 26 W/m² | - |
| 1777158171 | 13.33° C | 81% | 1014.1 hPa | 0 mm | - | 29 W/m² | - |
| 1777157867 | 13.33° C | 81% | 1014.2 hPa | 0 mm | - | 44 W/m² | - |
| 1777157563 | 13.33° C | 81% | 1014.2 hPa | 0 mm | - | 45 W/m² | - |
| 1777157260 | 13.33° C | 81% | 1014.3 hPa | 0 mm | - | 38 W/m² | - |
| 1777156960 | 13.33° C | 81% | 1014.2 hPa | 0 mm | - | 40 W/m² | - |
* Rain latest hour (hover to see other rain measurements)
** Current wind speed in m/s (hover to see current wind gust speed)